{"data":{"norad_id":68678,"intl_designator":"2026-077S","name":"STARLINK-37122","alt_names":[],"object_type":"PAYLOAD","status":"ACTIVE","operator":null,"country":"US","launch_date":"2026-04-11","launch_site_code":"AFWTR","launch_vehicle":null,"mission":null,"orbit_class":"UNKNOWN","rcs_meters":null,"size_class":null,"mass_kg":null,"dimensions":null,"purposes":["comms"],"wikipedia_slug":null,"has_3d_model":false,"image_url":null,"decayed_at":null,"tle_current":{"epoch":"2026-05-25T02:53:47.025888Z","epoch_age_seconds":64646,"freshness":"FRESH","line1":"1 68678U 26077S   26145.12068317  .00014608  00000+0  45388-3 0  9992","line2":"2 68678  97.2856  16.7310 0000459  53.3060 306.8225 15.33448900  6871","mean_motion":15.334489,"eccentricity":4.59e-5,"inclination_deg":97.2856,"raan_deg":16.731,"arg_perigee_deg":53.306,"mean_anomaly_deg":306.8225,"bstar":0.00045388,"rev_number":687,"period_min":93.905965826445,"perigee_km":465.21744645921,"apogee_km":465.84569523401,"semimajor_km":6843.6685708466,"source":"CELESTRAK","updated_at":"2026-05-25T13:38:21.995030Z"}}}